DH3PAE-6 Weather Reports


time (UTC)temp
C
wind
direction
speed
KPH
gust
KPH
rain 1hr
cm
rain 24hr
cm
rain mn
cm
humidity
%
barometer
mb
20260506092115 9 293 6.4 12.9 0.00 1.73 0.58 98 1004.7
20260506091135 9 270 3.2 6.4 0.00 1.73 0.58 98 1004.7
20260506090118 9 248 3.2 4.8 0.03 1.73 0.58 98 1004.6
20260506085118 9 293 3.2 9.7 0.03 1.73 0.58 98 1004.5
20260506084122 9 248 3.2 8.0 0.05 1.73 0.58 98 1004.4
20260506083120 9 270 3.2 4.8 0.05 1.73 0.58 98 1004.3
20260506082117 9 270 3.2 4.8 0.05 1.73 0.58 98 1004.3
20260506081117 8 293 3.2 6.4 0.05 1.73 0.58 98 1004.3
20260506080117 8 270 3.2 9.7 0.03 1.70 0.56 98 1004.2
20260506073120 8 270 1.6 3.2 0.00 1.68 0.53 98 1004.2
20260506072117 8 270 1.6 4.8 0.03 1.68 0.53 98 1004.2
20260506071140 8 293 3.2 4.8 0.03 1.68 0.53 98 1004.2
20260506070117 8 293 3.2 4.8 0.03 1.68 0.53 98 1004.0
20260506062106 8 270 1.6 3.2 0.05 1.65 0.51 98 1003.8
20260506061517 8 338 1.6 3.2 0.10 1.65 0.51 98 1003.8
20260506060524 8 293 1.6 1.6 0.15 1.65 0.51 98 1003.7
20260506050540 8 270 4.8 8.0 0.05 1.52 0.38 98 1003.9
20260506044517 8 315 3.2 3.2 0.05 1.50 0.36 98 1003.8
20260506043517 8 315 3.2 6.4 0.03 1.47 0.33 98 1003.8
20260506042600 8 315 1.6 1.6 0.00 1.45 0.33 98 1004.0
20260506041537 8 0.0 3.2 0.00 1.45 0.33 98 1004.0
20260506040517 8 270 1.6 3.2 0.00 1.45 0.33 98 1004.0
20260506035540 8 293 3.2 4.8 0.03 1.45 0.33 98 1004.1
20260506034517 8 293 1.6 1.6 0.05 1.45 0.33 98 1004.0
20260506033517 8 0.0 1.6 0.05 1.45 0.33 98 1004.1
20260506032605 8 315 1.6 3.2 0.08 1.45 0.33 98 1004.1
20260506031517 8 270 1.6 4.8 0.10 1.45 0.33 98 1004.0
20260506030517 8 315 1.6 3.2 0.15 1.45 0.33 98 1004.1
20260506025520 8 0.0 0.0 0.15 1.45 0.30 98 1004.3
20260506024517 8 248 1.6 3.2 0.15 1.42 0.28 98 1004.4
20260506023540 8 315 1.6 3.2 0.15 1.40 0.25 98 1004.4
20260506022517 8 0.0 1.6 0.13 1.37 0.23 98 1004.8
20260506021540 8 0.0 1.6 0.13 1.37 0.23 98 1004.8
20260506020540 8 293 1.6 3.2 0.13 1.32 0.18 98 1004.9
20260506015517 8 248 1.6 3.2 0.10 1.30 0.15 98 1004.9
20260506014537 8 315 3.2 6.4 0.10 1.27 0.15 98 1005.1
20260506013520 8 315 3.2 6.4 0.08 1.27 0.13 98 1005.2
20260506012537 8 315 1.6 3.2 0.08 1.27 0.13 98 1005.3
20260506011517 8 270 1.6 4.8 0.05 1.24 0.10 98 1005.3
20260506010517 8 248 1.6 4.8 0.03 1.19 0.05 98 1005.4
20260506005537 8 293 1.6 4.8 0.03 1.19 0.05 98 1005.3
20260506004517 8 0.0 3.2 0.00 1.17 0.05 98 1005.2
20260506003540 8 293 3.2 6.4 0.00 1.17 0.05 98 1005.3
20260506002520 8 293 4.8 8.0 0.00 1.17 0.05 98 1005.4
20260506001517 8 270 1.6 6.4 0.00 1.17 0.05 98 1005.5
20260506000517 8 315 3.2 4.8 0.00 1.17 0.05 98 1005.6
20260505235540 8 270 3.2 4.8 0.00 1.17 0.05 98 1005.7
20260505234517 8 248 1.6 6.4 0.03 1.17 0.05 98 1005.8
20260505233520 8 315 3.2 4.8 0.03 1.17 0.05 98 1005.8
20260505232516 8 248 3.2 8.0 0.03 1.17 0.05 98 1005.8
20260505231537 9 293 3.2 4.8 0.05 1.17 0.05 97 1005.8
20260505230517 8 225 3.2 12.9 0.05 1.17 0.05 97 1006.0
20260505225517 9 315 3.2 6.4 0.05 1.17 0.05 97 1006.0
20260505224537 9 270 3.2 8.0 0.03 1.17 0.03 97 1006.1
20260505223517 9 270 1.6 3.2 0.05 1.17 0.03 97 1006.0
20260505222517 9 293 3.2 4.8 0.05 1.17 0.03 97 1006.0
20260505221524 9 248 1.6 11.3 0.03 1.14 0.00 97 1006.1
20260505220519 9 0 3.2 8.0 0.03 1.14 0.00 97 1006.1
20260505215516 9 270 3.2 4.8 0.03 1.14 1.14 97 1006.2
20260505214516 9 338 3.2 6.4 0.03 1.14 1.14 97 1006.3
20260505213517 9 270 3.2 8.0 0.00 1.12 1.12 97 1006.4
20260505212516 9 315 4.8 8.0 0.00 1.12 1.12 97 1006.4
20260505211516 9 248 1.6 3.2 0.03 1.12 1.12 97 1006.5
20260505210516 9 270 1.6 3.2 0.03 1.12 1.12 97 1006.6
20260505205519 9 270 4.8 8.0 0.03 1.12 1.12 97 1006.6
20260505204519 9 225 3.2 3.2 0.05 1.12 1.12 97 1006.6
20260505203516 9 203 4.8 8.0 0.05 1.12 1.12 97 1006.6
20260505202521 10 270 4.8 11.3 0.05 1.12 1.12 97 1006.6
20260505201519 10 315 4.8 11.3 0.05 1.09 1.09 97 1006.6
20260505200516 10 315 1.6 4.8 0.05 1.09 1.09 97 1006.4
20260505195516 10 315 3.2 6.4 0.05 1.09 1.09 97 1006.4
20260505194519 10 315 3.2 6.4 0.05 1.09 1.09 97 1006.3
20260505193516 10 293 3.2 4.8 0.08 1.09 1.09 97 1006.3
20260505192539 10 315 1.6 3.2 0.10 1.09 1.09 97 1006.2
20260505191640 10 293 3.2 6.4 0.08 1.09 1.07 97 1006.1
20260505190516 10 315 3.2 6.4 0.08 1.07 1.04 97 1006.1
20260505185516 10 315 3.2 6.4 0.10 1.07 1.04 97 1006.1
20260505184539 10 315 1.6 3.2 0.10 1.04 1.02 97 1006.1
20260505183519 10 315 1.6 4.8 0.10 1.02 0.99 97 1006.1
20260505182559 10 0 3.2 4.8 0.10 0.99 0.99 97 1006.1
20260505181516 10 338 3.2 6.4 0.15 0.99 0.99 97 1006.0
20260505180516 11 315 3.2 4.8 0.18 0.99 0.97 97 1006.0
20260505175516 11 225 3.2 4.8 0.23 0.97 0.94 97 1006.0
20260505174519 11 315 3.2 6.4 0.23 0.94 0.91 96 1006.1
20260505173517 11 315 4.8 9.7 0.23 0.91 0.89 97 1006.1
20260505172536 11 315 4.8 6.4 0.23 0.89 0.89 96 1006.1
20260505170536 11 315 6.4 8.0 0.23 0.79 0.79 97 1006.0
20260505165516 11 315 4.8 12.9 0.18 0.76 0.71 96 1006.0
20260505164516 11 315 3.2 6.4 0.20 0.74 0.71 96 1006.1
20260505163539 11 270 3.2 6.4 0.23 0.71 0.66 96 1006.1
20260505162516 11 293 4.8 9.7 0.25 0.71 0.64 96 1006.1
20260505161519 12 338 3.2 6.4 0.25 0.71 0.61 96 1006.1
20260505160516 12 315 3.2 4.8 0.25 0.66 0.56 96 1006.3
20260505152516 12 270 3.2 6.4 0.38 0.51 0.38 95 1006.5
20260505151519 12 315 1.6 3.2 0.33 0.48 0.33 95 1006.5
20260505150516 12 315 4.8 6.4 0.30 0.43 0.30 94 1006.6
20260505140516 14 293 6.4 12.9 0.00 0.15 0.00 87 1006.6
20260505124916 15 338 1.6 3.2 0.00 0.15 0.00 84 1007.3
20260505123939 15 338 6.4 9.7 0.00 0.15 0.00 82 1007.4
20260505122919 15 315 3.2 4.8 0.00 0.23 0.00 82 1007.5
20260505121936 15 338 4.8 8.0 0.00 0.28 0.00 83 1007.5
20260505120936 15 158 1.6 3.2 0.00 0.28 0.00 85 1007.5
20260505115905 15 0 4.8 9.7 0.00 0.28 0.00 83 1007.5
20260505115516 15 338 4.8 8.0 0.00 0.28 0.00 84 1007.5
20260505114516 14 315 4.8 8.0 0.00 0.28 0.00 84 1007.7
20260505113516 15 0 3.2 4.8 0.00 0.28 0.00 85 1007.9
20260505112503 15 293 1.6 3.2 0.00 0.28 0.00 83 1007.9
20260505112219 15 315 4.8 6.4 0.00 0.28 0.00 83 1007.9
20260505111516 15 315 3.2 4.8 0.00 0.28 0.00 85 1007.9
20260505111319 15 23 4.8 8.0 0.00 0.28 0.00 86 1007.9
20260505110319 14 23 3.2 4.8 0.00 0.28 0.00 86 1007.9
20260505101259 13 338 3.2 4.8 0.00 0.28 0.00 89 1008.2
20260505101019 13 315 3.2 4.8 0.00 0.28 0.00 89 1008.2
20260505100015 13 338 4.8 4.8 0.00 0.28 0.00 88 1008.2
20260505095016 13 338 4.8 6.4 0.00 0.28 0.00 87 1008.1
20260505094016 14 293 1.6 6.4 0.00 0.28 0.00 85 1008.3
20260505093016 14 180 3.2 4.8 0.00 0.28 0.00 83 1008.4